Le nostre stazioni meteo in Italia

Pubblicità
Il mio iltempo24.it
Reggio Calabria, Italia (16422): Temperatura & dewpoint: 13.06.2019 01:00:00 - 19.06.2019 01:00:00 (CEST)Reggio Calabria, Italia (16422): velocità del vento: 13.06.2019 01:00:00 - 19.06.2019 01:00:00 (CEST)Reggio Calabria, Italia (16422): direzione del vento: 13.06.2019 01:00:00 - 19.06.2019 01:00:00 (CEST)Reggio Calabria, Italia (16422): visibility: 13.06.2019 01:00:00 - 19.06.2019 01:00:00 (CEST)
Data & Tempo tt [°C] td [°C] ff [km/h] ff [kn] dd vv [km]
19.06.2019 01:00:00 - - - - - -
19.06.2019 00:00:00 25,0 18,0 15 8 N 10
18.06.2019 23:00:00 25,0 17,0 13 7 N 10
18.06.2019 22:00:00 25,0 20,0 18 10 N 10
18.06.2019 21:00:00 25,0 20,0 18 10 N 10
18.06.2019 20:00:00 25,0 20,0 21 11 NNO 10
18.06.2019 19:00:00 27,0 20,0 15 8 NNO 10
18.06.2019 18:00:00 27,0 21,0 8 4 O 10
18.06.2019 17:00:00 27,0 19,0 9 5 SO 10
18.06.2019 16:00:00 29,0 19,0 9 5 ONO 10
18.06.2019 15:00:00 30,0 19,0 16 9 NNO 10
18.06.2019 14:00:00 29,0 20,0 18 10 NNO 10
18.06.2019 13:00:00 30,0 19,0 16 9 N 10
18.06.2019 12:00:00 29,0 20,0 18 10 NNO 10
18.06.2019 11:00:00 28,0 19,0 24 13 NNO 10
18.06.2019 10:00:00 27,0 20,0 24 13 N 10
18.06.2019 09:00:00 26,0 20,0 24 13 N 10
18.06.2019 08:00:00 26,0 20,0 26 14 N 10
18.06.2019 07:00:00 25,0 19,0 21 11 N 10
18.06.2019 06:00:00 24,0 19,0 26 14 N 10
18.06.2019 05:00:00 - - - - - -
18.06.2019 04:00:00 - - - - - -
18.06.2019 03:00:00 - - - - - -
18.06.2019 02:00:00 - - - - - -
18.06.2019 01:00:00 - - - - - -
18.06.2019 00:00:00 24,0 20,0 13 7 NNE 10
17.06.2019 23:00:00 24,0 20,0 16 9 N 10
17.06.2019 22:00:00 25,0 20,0 18 10 N 10
17.06.2019 21:00:00 25,0 20,0 22 12 N 10
17.06.2019 20:00:00 26,0 20,0 21 11 N 10
17.06.2019 19:00:00 27,0 19,0 16 9 NNO 10
17.06.2019 18:00:00 29,0 16,0 8 4 ONO 10
17.06.2019 17:00:00 29,0 14,0 9 5 SO 10
17.06.2019 16:00:00 30,0 15,0 8 4 SO 10
17.06.2019 15:00:00 31,0 18,0 8 4 - 10
17.06.2019 14:00:00 29,0 20,0 13 7 N 10
17.06.2019 13:00:00 28,0 21,0 22 12 N 10
17.06.2019 12:00:00 27,0 21,0 26 14 N 10
17.06.2019 11:00:00 26,0 21,0 29 16 N 10
17.06.2019 10:00:00 26,0 20,0 29 16 N 10
17.06.2019 09:00:00 25,0 20,0 29 16 N 10
17.06.2019 08:00:00 24,0 20,0 24 13 N 10
17.06.2019 07:00:00 23,0 20,0 21 11 N 10
17.06.2019 06:00:00 23,0 20,0 22 12 N 10
17.06.2019 05:00:00 - - - - - -
17.06.2019 04:00:00 - - - - - -
17.06.2019 03:00:00 - - - - - -
17.06.2019 02:00:00 - - - - - -
17.06.2019 01:00:00 - - - - - -
17.06.2019 00:00:00 24,0 20,0 28 15 N 10
16.06.2019 23:00:00 24,0 20,0 29 16 N 10
16.06.2019 22:00:00 25,0 20,0 28 15 N 10
16.06.2019 21:00:00 25,0 18,0 26 14 N 10
16.06.2019 20:00:00 26,0 17,0 29 16 N 10
16.06.2019 19:00:00 27,0 19,0 28 15 N 10
16.06.2019 18:00:00 28,0 19,0 24 13 N 10
16.06.2019 17:00:00 30,0 17,0 26 14 N 10
16.06.2019 16:00:00 31,0 16,0 29 16 N 10
16.06.2019 15:00:00 31,0 16,0 31 17 N 10
16.06.2019 14:00:00 30,0 17,0 34 18 N 10
16.06.2019 13:00:00 30,0 18,0 35 19 N 10
16.06.2019 12:00:00 28,0 17,0 42 23 NO 10
16.06.2019 11:00:00 27,0 20,0 34 18 N 10
16.06.2019 10:00:00 26,0 20,0 41 22 N 10
16.06.2019 09:00:00 26,0 21,0 35 19 N 10
16.06.2019 08:00:00 25,0 21,0 29 16 N 10
16.06.2019 07:00:00 24,0 21,0 26 14 N 10
16.06.2019 06:00:00 24,0 22,0 34 18 N 10
16.06.2019 05:00:00 - - - - - -
16.06.2019 04:00:00 - - - - - -
16.06.2019 03:00:00 - - - - - -
16.06.2019 02:00:00 - - - - - -
16.06.2019 01:00:00 - - - - - -
16.06.2019 00:00:00 25,0 20,0 31 17 N 10
15.06.2019 23:00:00 26,0 17,0 28 15 N 10
15.06.2019 22:00:00 27,0 16,0 26 14 N 10
15.06.2019 21:00:00 27,0 18,0 26 14 N 10
15.06.2019 20:00:00 29,0 14,0 26 14 N 10
15.06.2019 19:00:00 29,0 18,0 28 15 N 10
15.06.2019 18:00:00 30,0 16,0 28 15 N 10
15.06.2019 17:00:00 32,0 14,0 34 18 N 10
15.06.2019 16:00:00 32,0 14,0 29 16 NNO 10
15.06.2019 15:00:00 32,0 15,0 28 15 N 10
15.06.2019 14:00:00 34,0 16,0 28 15 N 10
15.06.2019 13:00:00 34,0 14,0 29 16 N 10
15.06.2019 12:00:00 32,0 16,0 26 14 N 10
15.06.2019 11:00:00 32,0 15,0 28 15 N 10
15.06.2019 10:00:00 31,0 15,0 24 13 N 10
15.06.2019 09:00:00 29,0 17,0 22 12 N 10
15.06.2019 08:00:00 28,0 16,0 24 13 N 10
15.06.2019 07:00:00 29,0 15,0 26 14 N 10
15.06.2019 06:00:00 27,0 16,0 13 7 N 10
15.06.2019 05:00:00 - - - - - -
15.06.2019 04:00:00 - - - - - -
15.06.2019 03:00:00 - - - - - -
15.06.2019 02:00:00 - - - - - -
15.06.2019 01:00:00 - - - - - -
15.06.2019 00:00:00 23,0 21,0 8 4 NNO 10
14.06.2019 23:00:00 23,0 20,0 0 0 N 10
14.06.2019 22:00:00 23,0 21,0 4 2 - 10
14.06.2019 21:00:00 22,0 20,0 4 2 SSE 10
14.06.2019 20:00:00 24,0 21,0 4 2 - 10
14.06.2019 19:00:00 25,0 21,0 11 6 SO 10
14.06.2019 18:00:00 25,0 22,0 13 7 SO 10
14.06.2019 17:00:00 26,0 22,0 13 7 SO 10
14.06.2019 16:00:00 26,0 21,0 13 7 SO 10
14.06.2019 15:00:00 26,0 21,0 13 7 SO 10
14.06.2019 14:00:00 27,0 20,0 11 6 S 10
14.06.2019 13:00:00 28,0 19,0 13 7 SSO 10
14.06.2019 12:00:00 28,0 18,0 15 8 SSO 10
14.06.2019 11:00:00 27,0 18,0 8 4 SSO 10
14.06.2019 10:00:00 28,0 15,0 8 4 S 10
14.06.2019 09:00:00 28,0 13,0 4 2 - 10
14.06.2019 08:00:00 25,0 15,0 4 2 - 10
14.06.2019 07:00:00 23,0 15,0 0 0 N 10
14.06.2019 06:00:00 21,0 14,0 2 1 - 10
14.06.2019 05:00:00 - - - - - -
14.06.2019 04:00:00 - - - - - -
14.06.2019 03:00:00 - - - - - -
14.06.2019 02:00:00 - - - - - -
14.06.2019 01:00:00 - - - - - -
14.06.2019 00:00:00 22,0 20,0 13 7 N 10
13.06.2019 23:00:00 23,0 21,0 22 12 N 10
13.06.2019 22:00:00 24,0 19,0 15 8 N 10
13.06.2019 21:00:00 24,0 18,0 22 12 N 10
13.06.2019 20:00:00 24,0 19,0 29 16 N 10
13.06.2019 19:00:00 26,0 17,0 31 17 N 10
13.06.2019 18:00:00 27,0 18,0 35 19 N 10
13.06.2019 17:00:00 27,0 19,0 34 18 N 10
13.06.2019 16:00:00 27,0 19,0 39 21 NNO 10
13.06.2019 15:00:00 27,0 20,0 39 21 N 10
13.06.2019 14:00:00 27,0 21,0 37 20 NNO 10
13.06.2019 13:00:00 27,0 21,0 34 18 N 10
13.06.2019 12:00:00 26,0 20,0 35 19 N 10
13.06.2019 11:00:00 25,0 21,0 34 18 N 10
13.06.2019 10:00:00 25,0 20,0 28 15 N 10
13.06.2019 09:00:00 24,0 20,0 29 16 N 10
13.06.2019 08:00:00 24,0 19,0 26 14 N 10
13.06.2019 07:00:00 23,0 18,0 28 15 N 10
13.06.2019 06:00:00 22,0 17,0 11 6 NNE 10
13.06.2019 05:00:00 - - - - - -
13.06.2019 04:00:00 - - - - - -
13.06.2019 03:00:00 - - - - - -
13.06.2019 02:00:00 - - - - - -
13.06.2019 01:00:00 - - - - - -

tt = Temperatura
td = dewpoint
ff = velocità del vento
dd = direzione del vento
vv = visibility

Stazioni seguenti

WeatherPro
AMSI
MeteoEarth